ASIASAT 3S              
1 25657U 99013A   19259.72076943 -.00000229  00000-0  00000-0 0  9995
2 25657   4.2003  74.0725 0002546  90.8609 237.4442  1.00271829 75097
SL-12 R/B(2)            
1 25660U 99013D   19259.73708255 -.00000141  00000-0  00000+0 0  9990
2 25660  14.1014 311.9453 4584387  59.0017  61.4233  1.74917358130951